Home > Weather > Kawartha Lakes > Past weeks

Flag for Canada Past Weather in Kawartha Lakes, Ontario, Canada — Yesterday and Last 2 Weeks

Now
58 °F

Cool.


Feels Like: 58 °F
Forecast: 45 / 80 °F
Wind: 2 mph from South

Location: Lagoon City

Current Time: May 24, 2016 at 11:47:52 AM

Latest Report: May 24, 2016 at 11:00 AM


Visibility: N/A

Pressure: 29.99 "Hg

Humidity: 81%

Dew Point: 52 °F

Location of Kawartha LakesLocation

Past Weather in Kawartha Lakes — Graph

°F

Kawartha Lakes Temperature Yesterday

Maximum temperature yesterday: 74 °F (at 6:00 PM)
Minimum temperature yesterday: 48 °F (at 5:00 AM)
Average temperature yesterday: 58 °F

High & Low Weather Summary for the Past Weeks

 TemperatureHumidityPressure
High74 °F (May 23, 6:00 PM)99% (May 13, 11:00 AM)30.29 "Hg (May 13, 11:00 AM)
Low35 °F (May 10, 6:00 AM)26% (May 23, 6:00 PM)29.42 "Hg (May 14, 1:00 PM)
Average52 °F66%30.02 "Hg
* Reported May 9 10:00 AM — May 24 10:00 AM, Kawartha Lakes, Weather by CustomWeather, © 2016

Note: Actual official high and low records may vary slightly from our data, if they occured in-between our weather recording intervals... More about our weather records

Advertising

Kawartha Lakes Weather History for the Previous 24 Hours

Scroll right to see more
 ConditionsComfort  
Time TempWeatherWind HumidityBarometerVisibility
10:00 AM
Tue, May 24
56 °FCool.3 mph84%29.99 "HgN/A
9:00 AM58 °FCool.2 mph63%29.99 "HgN/A
8:00 AM57 °FCool.1 mph65%29.97 "HgN/A
7:00 AM49 °FCool.2 mph89%29.97 "HgN/A
6:00 AM46 °FCool.2 mph92%29.97 "HgN/A
5:00 AM47 °FCool.2 mph92%29.97 "HgN/A
4:00 AM50 °FCool.2 mph90%29.96 "HgN/A
3:00 AM51 °FCool.3 mph88%29.96 "HgN/A
2:00 AM52 °FCool.No wind86%29.97 "HgN/A
1:00 AM57 °FCool.5 mph75%29.98 "HgN/A
12:00 AM59 °FCool.3 mph70%29.97 "HgN/A
11:00 PM
Mon, May 23
60 °FCool.1 mph63%29.96 "HgN/A
10:00 PM62 °FRefreshingly cool.6 mph48%29.96 "HgN/A
9:00 PM66 °FMild.7 mph42%29.96 "HgN/A
8:00 PM70 °FMild.9 mph37%29.95 "HgN/A
7:00 PM73 °FMild.10 mph26%29.95 "HgN/A
6:00 PM74 °FMild.10 mph26%29.96 "HgN/A
5:00 PM68 °FMild.7 mph52%29.97 "HgN/A
4:00 PM67 °FMild.8 mph59%29.98 "HgN/A
3:00 PM66 °FMild.7 mph54%30.00 "HgN/A
2:00 PM62 °FCool.7 mph61%30.03 "HgN/A
1:00 PM59 °FCool.7 mph68%30.05 "HgN/A
12:00 PM56 °FCool.5 mph78%30.07 "HgN/A
11:00 AM55 °FCool.3 mph77%30.08 "HgN/A
Weather by CustomWeather, © 2016

See weather overviewHow to use our weather pages